When you browse on this site, cookies collect data to enhance your experience and personalize the content and advertising you see.
Visit our Privacy Policy to learn more. By continuing to use the site, you agree to this use of cookies and data.
  • In Hungary
  • List of Countries
  • For 7 days
  • Water Temperature
  • Satellite Maps
  • Weather Map
  • News
  • Weather Widgets
  • user-avatar
    Login

    Hourly Weather Kavali

    Today, 22 March, Friday

    Time Temperature Precipitation Wind Pressure Humidity
    00:00 +29°C° 0 mm 4 mps 758 mmHg 74%
    01:00 +29°C° 0 mm 4 mps 758 mmHg 75%
    02:00 +28°C° 0 mm 4 mps 757 mmHg 77%
    03:00 +28°C° 0 mm 4 mps 757 mmHg 79%
    04:00 +28°C° 0 mm 5 mps 757 mmHg 80%
    05:00 +27°C° 0 mm 5 mps 757 mmHg 81%
    06:00 +28°C° 0 mm 5 mps 758 mmHg 76%
    07:00 +29°C° 0 mm 5 mps 758 mmHg 71%
    08:00 +30°C° 0 mm 6 mps 759 mmHg 66%
    09:00 +33°C° 0 mm 5 mps 759 mmHg 56%
    10:00 +35°C° 0 mm 5 mps 758 mmHg 46%
    11:00 +37°C° 0 mm 5 mps 758 mmHg 36%
    12:00 +39°C° 0 mm 5 mps 758 mmHg 36%
    13:00 +39°C° 0 mm 5 mps 757 mmHg 35%
    14:00 +40°C° 0 mm 6 mps 756 mmHg 34%
    15:00 +38°C° 0 mm 6 mps 756 mmHg 41%
    16:00 +36°C° 0 mm 6 mps 756 mmHg 49%
    17:00 +34°C° 0 mm 6 mps 756 mmHg 57%
    18:00 +33°C° 0 mm 6 mps 756 mmHg 61%
    19:00 +32°C° 0 mm 5 mps 757 mmHg 66%
    20:00 +30°C° 0 mm 5 mps 757 mmHg 71%
    21:00 +29°C° 0 mm 5 mps 757 mmHg 72%
    22:00 +29°C° 0 mm 5 mps 758 mmHg 73%
    23:00 +29°C° 0 mm 5 mps 758 mmHg 75%

    Tomorrow, 23 March, Saturday

    Time Temperature Precipitation Wind Pressure Humidity
    00:00 +29°C° 0 mm 5 mps 757 mmHg 77%
    01:00 +28°C° 0 mm 5 mps 757 mmHg 79%
    02:00 +28°C° 0 mm 4 mps 756 mmHg 81%
    03:00 +28°C° 0 mm 4 mps 756 mmHg 82%
    04:00 +27°C° 0 mm 5 mps 756 mmHg 83%
    05:00 +27°C° 0 mm 5 mps 756 mmHg 84%
    06:00 +28°C° 0 mm 5 mps 757 mmHg 77%
    07:00 +29°C° 0 mm 5 mps 757 mmHg 70%
    08:00 +30°C° 0 mm 6 mps 758 mmHg 62%
    09:00 +34°C° 0 mm 5 mps 758 mmHg 51%
    10:00 +36°C° 0 mm 5 mps 758 mmHg 39%
    11:00 +40°C° 0 mm 4 mps 758 mmHg 28%
    12:00 +41°C° 0 mm 4 mps 757 mmHg 27%
    13:00 +41°C° 0 mm 5 mps 756 mmHg 26%
    14:00 +42°C° 0 mm 5 mps 755 mmHg 25%
    15:00 +40°C° 0 mm 5 mps 755 mmHg 32%
    16:00 +38°C° 0 mm 6 mps 754 mmHg 40%
    17:00 +36°C° 0 mm 6 mps 754 mmHg 47%
    18:00 +34°C° 0 mm 6 mps 755 mmHg 53%
    19:00 +33°C° 0 mm 6 mps 756 mmHg 59%
    20:00 +32°C° 0 mm 6 mps 756 mmHg 65%
    21:00 +30°C° 0 mm 6 mps 756 mmHg 65%
    22:00 +30°C° 0 mm 6 mps 756 mmHg 66%
    23:00 +30°C° 0 mm 5 mps 757 mmHg 66%

    Day after tomorrow, 24 March, Sunday

    Time Temperature Precipitation Wind Pressure Humidity
    00:00 +30°C° 0 mm 5 mps 756 mmHg 67%
    01:00 +29°C° 0 mm 5 mps 755 mmHg 69%
    02:00 +29°C° 0 mm 5 mps 755 mmHg 70%
    03:00 +29°C° 0 mm 5 mps 755 mmHg 70%
    04:00 +28°C° 0 mm 5 mps 755 mmHg 69%
    05:00 +28°C° 0 mm 5 mps 755 mmHg 69%
    06:00 +29°C° 0 mm 5 mps 755 mmHg 61%
    07:00 +32°C° 0 mm 4 mps 756 mmHg 52%
    08:00 +33°C° 0 mm 4 mps 757 mmHg 44%
    09:00 +36°C° 0 mm 3 mps 757 mmHg 37%
    10:00 +38°C° 0 mm 3 mps 757 mmHg 30%
    11:00 +40°C° 0 mm 2 mps 757 mmHg 23%
    12:00 +40°C° 0 mm 3 mps 756 mmHg 24%
    13:00 +42°C° 0 mm 4 mps 755 mmHg 25%
    14:00 +42°C° 0 mm 6 mps 754 mmHg 26%
    15:00 +40°C° 0 mm 6 mps 754 mmHg 33%
    16:00 +38°C° 0 mm 6 mps 754 mmHg 41%
    17:00 +36°C° 0 mm 7 mps 754 mmHg 48%
    18:00 +34°C° 0 mm 7 mps 755 mmHg 54%
    19:00 +33°C° 0 mm 7 mps 755 mmHg 60%
    20:00 +32°C° 0 mm 7 mps 756 mmHg 66%
    21:00 +32°C° 0 mm 7 mps 756 mmHg 67%
    22:00 +32°C° 0 mm 6 mps 756 mmHg 67%
    23:00 +30°C° 0 mm 6 mps 756 mmHg 68%

    25 March, Monday

    Time Temperature Precipitation Wind Pressure Humidity
    00:00 +30°C° 0 mm 6 mps 756 mmHg 69%
    01:00 +30°C° 0 mm 6 mps 755 mmHg 71%
    02:00 +29°C° 0 mm 5 mps 754 mmHg 72%
    03:00 +29°C° 0 mm 5 mps 754 mmHg 72%
    04:00 +29°C° 0 mm 5 mps 755 mmHg 73%
    05:00 +28°C° 0 mm 5 mps 755 mmHg 73%
    06:00 +30°C° 0 mm 5 mps 755 mmHg 67%
    07:00 +32°C° 0 mm 6 mps 756 mmHg 60%
    08:00 +33°C° 0 mm 6 mps 757 mmHg 54%
    09:00 +35°C° 0 mm 6 mps 757 mmHg 46%
    10:00 +38°C° 0 mm 6 mps 757 mmHg 38%
    11:00 +40°C° 0 mm 6 mps 757 mmHg 31%
    12:00 +41°C° 0 mm 6 mps 756 mmHg 30%
    13:00 +41°C° 0 mm 6 mps 755 mmHg 29%
    14:00 +41°C° 0 mm 6 mps 755 mmHg 28%
    15:00 +39°C° 0 mm 6 mps 755 mmHg 33%
    16:00 +38°C° 0 mm 6 mps 755 mmHg 38%
    17:00 +35°C° 0 mm 6 mps 755 mmHg 43%
    18:00 +34°C° 0 mm 6 mps 756 mmHg 52%
    19:00 +33°C° 0 mm 5 mps 756 mmHg 61%
    20:00 +30°C° 0 mm 4 mps 757 mmHg 70%
    21:00 +30°C° 0 mm 4 mps 757 mmHg 71%
    22:00 +30°C° 0 mm 4 mps 757 mmHg 72%
    23:00 +29°C° 0 mm 4 mps 757 mmHg 74%

    26 March, Tuesday

    Time Temperature Precipitation Wind Pressure Humidity
    00:00 +29°C° 0 mm 5 mps 757 mmHg 75%
    01:00 +28°C° 0 mm 5 mps 756 mmHg 75%
    02:00 +28°C° 0 mm 5 mps 755 mmHg 76%
    03:00 +28°C° 0 mm 5 mps 755 mmHg 76%
    04:00 +28°C° 0 mm 5 mps 756 mmHg 75%
    05:00 +27°C° 0 mm 5 mps 756 mmHg 75%
    06:00 +29°C° 0 mm 5 mps 757 mmHg 69%
    07:00 +30°C° 0 mm 6 mps 757 mmHg 64%
    08:00 +32°C° 0 mm 6 mps 758 mmHg 58%
    09:00 +34°C° 0 mm 6 mps 758 mmHg 49%
    10:00 +36°C° 0 mm 6 mps 758 mmHg 41%
    11:00 +39°C° 0 mm 6 mps 758 mmHg 32%
    12:00 +39°C° 0 mm 6 mps 757 mmHg 32%
    13:00 +39°C° 0 mm 6 mps 756 mmHg 31%
    14:00 +39°C° 0 mm 6 mps 755 mmHg 31%
    15:00 +38°C° 0 mm 6 mps 756 mmHg 36%
    16:00 +36°C° 0 mm 6 mps 756 mmHg 42%
    17:00 +34°C° 0 mm 6 mps 756 mmHg 48%
    18:00 +33°C° 0 mm 5 mps 756 mmHg 54%
    19:00 +32°C° 0 mm 5 mps 757 mmHg 60%
    20:00 +30°C° 0 mm 4 mps 758 mmHg 67%
    21:00 +29°C° 0 mm 4 mps 758 mmHg 68%
    22:00 +29°C° 0 mm 4 mps 758 mmHg 70%
    23:00 +29°C° 0 mm 4 mps 758 mmHg 71%

    27 March, Wednesday

    Time Temperature Precipitation Wind Pressure Humidity
    00:00 +28°C° 0 mm 4 mps 757 mmHg 72%
    01:00 +28°C° 0 mm 5 mps 757 mmHg 73%
    02:00 +28°C° 0 mm 5 mps 756 mmHg 74%
    03:00 +27°C° 0 mm 5 mps 756 mmHg 75%
    04:00 +27°C° 0 mm 4 mps 757 mmHg 76%
    05:00 +27°C° 0 mm 4 mps 757 mmHg 77%
    06:00 +28°C° 0 mm 4 mps 758 mmHg 70%
    07:00 +29°C° 0 mm 5 mps 758 mmHg 63%
    08:00 +32°C° 0 mm 5 mps 759 mmHg 57%
    09:00 +34°C° 0 mm 5 mps 758 mmHg 47%
    10:00 +36°C° 0 mm 5 mps 758 mmHg 37%
    11:00 +38°C° 0 mm 4 mps 758 mmHg 27%
    12:00 +40°C° 0 mm 5 mps 757 mmHg 26%
    13:00 +41°C° 0 mm 5 mps 756 mmHg 24%
    14:00 +41°C° 0 mm 5 mps 755 mmHg 23%
    15:00 +40°C° 0 mm 5 mps 755 mmHg 29%
    16:00 +37°C° 0 mm 5 mps 755 mmHg 36%
    17:00 +36°C° 0 mm 5 mps 755 mmHg 42%
    18:00 +34°C° 0 mm 5 mps 756 mmHg 50%
    19:00 +32°C° 0 mm 5 mps 757 mmHg 59%
    20:00 +30°C° 0 mm 5 mps 757 mmHg 67%
    21:00 +30°C° 0 mm 5 mps 757 mmHg 68%
    22:00 +29°C° 0 mm 5 mps 757 mmHg 69%
    23:00 +29°C° 0 mm 6 mps 757 mmHg 70%
    Show more